Theta_e
323 324 323 322 322 322 326 325 325 320 319 319 318 323 331 331 332 332 332 335 334 334 337 339 338 337 334 332 328 326 324 323 321 320 319 318 315 315 315 314 314 314 313 312
326 324 322 322 321 319 319 319 318 318 317 316 324 333 333 333 333 332 332 331 332 332 335 333 334 337 335 332 329 326 325 323 321 320 319 317 316 316 316 315 315 314 314 312
325 323 321 320 321 321 320 320 320 319 318 327 332 331 330 330 330 331 332 333 332 332 334 336 333 326 336 332 329 326 325 323 322 321 320 317 317 317 316 315 315 314 313 312
321 320 321 319 320 320 320 321 321 321 331 330 330 325 324 324 325 328 329 330 332 333 331 333 335 326 337 333 331 327 326 323 322 321 320 318 317 317 316 316 315 314 313 312
319 320 320 320 319 319 319 322 327 331 329 327 327 324 321 321 323 326 328 327 330 330 328 333 336 336 327 331 329 328 325 323 323 321 321 319 318 317 317 315 315 313 313 312
318 320 321 321 320 321 324 325 325 325 324 325 325 325 322 320 319 322 326 326 327 330 327 331 335 334 330 328 329 326 324 324 323 322 320 319 319 318 317 315 314 313 312 312
317 317 318 319 322 324 324 325 323 322 321 320 321 321 319 318 317 318 323 326 326 326 324 327 333 333 330 327 329 327 325 325 324 322 321 319 319 318 317 315 313 313 311 312
317 318 318 322 325 326 325 324 320 322 319 318 317 316 316 315 315 315 317 322 325 325 322 323 329 333 329 330 330 327 325 324 323 322 322 320 319 318 317 314 313 314 313 311
322 320 322 320 322 322 321 323 318 320 318 317 316 315 314 314 314 314 314 316 321 326 325 321 324 329 331 331 328 327 326 324 323 322 321 320 319 318 316 314 314 309 310 310
312 317 314 313 318 319 319 318 317 317 316 315 315 313 312 311 311 312 312 311 314 323 324 323 319 325 329 330 328 326 323 323 322 321 320 320 319 318 315 314 307 311 312 313
309 310 313 312 309 310 311 314 314 317 316 313 312 310 310 309 310 310 309 309 310 320 323 324 321 322 326 329 328 326 324 323 323 321 320 320 318 315 314 311 312 312 313 313
308 310 310 309 309 309 308 308 309 308 309 309 309 309 309 309 308 308 308 309 310 312 318 320 324 319 323 326 328 326 324 323 321 321 320 318 317 314 312 312 313 313 311 309
306 307 307 307 307 307 307 308 308 308 309 308 308 308 308 308 308 308 308 310 311 313 320 321 324 320 318 325 327 326 325 323 321 321 319 318 316 314 313 312 311 309 308 308
305 306 306 306 306 306 306 306 306 307 307 308 308 307 308 308 307 307 308 310 310 317 316 315 323 322 318 322 326 326 325 323 322 320 319 317 314 312 311 311 311 309 308 307
307 306 306 306 305 305 305 305 305 306 306 306 306 306 307 307 307 307 309 309 310 316 315 314 322 318 317 321 325 325 324 322 321 319 318 315 313 312 311 308 309 309 308 307
307 307 307 306 306 306 307 307 306 306 307 306 306 307 307 307 307 309 309 308 310 314 313 314 321 317 317 320 324 324 324 322 320 317 317 313 313 313 312 312 311 310 309 308
307 307 308 307 307 308 307 307 307 305 305 305 307 307 307 307 307 307 307 309 311 313 311 313 320 316 317 321 325 323 322 320 317 315 315 312 312 313 313 313 311 310 308 304
306 307 307 307 307 306 306 306 306 307 308 305 308 309 309 309 310 312 313 313 312 312 311 312 320 317 318 323 323 322 321 317 315 314 312 313 314 313 313 311 311 309 307 303
307 308 308 308 308 308 308 308 308 305 306 311 310 308 307 308 310 311 313 315 313 312 310 314 319 317 323 323 321 321 318 314 314 313 313 313 313 312 311 310 307 304 303 302
309 309 308 308 307 308 308 308 307 306 304 306 310 310 312 312 310 312 315 314 312 312 314 318 317 317 322 321 319 318 314 314 313 313 313 312 312 311 310 306 304 303 303 303
308 308 307 307 308 308 307 308 308 308 309 309 310 310 310 310 309 313 314 314 312 314 319 316 316 319 323 319 316 313 313 313 313 312 312 312 311 309 306 304 303 303 302 301
306 307 307 308 308 308 307 307 306 306 306 309 310 308 309 310 311 313 314 314 313 317 317 319 319 317 315 313 313 312 313 313 312 312 311 310 309 306 304 303 303 302 301 300
307 307 307 307 307 307 306 305 305 305 306 306 308 310 312 312 314 315 316 317 317 318 315 315 313 312 312 312 312 313 313 312 311 311 310 307 305 304 303 303 302 300 299 297
306 305 305 304 304 305 305 305 306 307 308 309 311 313 313 315 315 314 316 317 316 312 310 312 313 312 312 312 312 311 311 311 310 309 306 305 304 304 303 302 300 296 296 295
304 305 304 304 305 305 306 307 309 311 311 313 314 315 314 315 315 315 316 313 312 312 312 312 312 312 311 311 311 311 311 309 307 305 305 304 303 302 301 299 297 296 295 295
305 305 306 306 306 306 307 309 312 313 314 314 313 313 313 313 313 312 311 310 311 311 312 312 312 312 312 311 310 309 307 305 304 304 304 303 302 301 298 296 295 295 295 295
306 307 309 311 310 310 309 310 314 313 314 313 312 312 312 311 310 309 309 310 311 311 310 309 310 310 310 309 308 306 304 304 304 303 303 302 298 296 296 295 295 295 294 294
Wind_Speed
8 11 13 12 12 9 5 6 5 10 7 6 9 6 9 18 25 24 20 16 18 18 8 20 28 33 32 33 33 30 31 30 29 27 23 19 17 13 11 12 11 8 7 6
5 11 14 17 13 11 10 11 11 12 12 8 2 21 23 22 24 22 19 19 21 21 18 20 21 29 28 31 33 33 31 31 29 26 23 21 18 15 12 13 12 11 10 8
4 8 14 9 9 9 9 9 8 10 12 9 12 16 19 21 21 20 19 20 19 21 19 6 19 26 31 35 33 35 33 31 28 25 23 22 19 17 15 15 14 14 11 9
3 6 8 8 7 11 14 10 11 6 12 16 18 22 22 20 21 21 20 19 17 19 24 18 20 28 32 36 40 38 34 34 30 26 24 22 19 20 17 15 13 12 10 12
2 5 14 14 15 8 11 16 14 4 8 15 22 21 21 18 18 19 19 20 20 23 26 24 14 19 35 37 40 40 40 37 31 31 27 25 22 20 18 15 11 9 10 9
3 4 5 3 4 15 8 6 11 16 13 14 12 3 3 13 16 16 18 20 21 24 26 24 4 29 27 24 40 41 42 38 32 28 29 24 20 20 19 14 9 10 8 7
9 6 6 3 14 15 3 5 6 12 14 16 6 6 11 11 14 16 15 19 22 23 28 26 10 11 32 23 46 47 44 36 31 31 28 23 17 21 18 12 7 11 8 10
8 10 12 11 7 3 1 8 17 9 8 9 8 7 10 12 14 15 17 18 21 24 26 25 16 14 28 30 46 47 43 37 33 30 23 22 20 20 15 9 12 13 11 9
4 5 8 5 4 5 4 4 9 12 11 11 12 10 12 14 12 14 16 18 22 23 24 24 19 9 28 29 43 44 42 41 33 29 24 27 24 19 15 13 12 9 14 10
4 5 10 20 12 6 5 5 7 6 1 7 10 12 14 18 15 14 18 21 21 23 24 23 21 16 12 28 36 39 41 38 30 26 29 26 22 16 15 11 12 12 8 6
7 7 10 6 15 16 9 11 13 10 6 8 10 15 15 18 16 16 21 23 21 23 23 23 22 17 14 17 33 39 37 31 28 27 28 25 20 14 12 11 8 11 11 9
8 12 7 15 19 17 16 15 18 19 18 17 16 18 20 20 20 22 23 23 25 21 24 26 24 20 16 17 32 39 36 33 31 29 25 23 18 16 14 9 11 10 7 5
24 25 25 27 26 23 19 18 16 17 21 22 21 21 23 23 23 24 22 21 24 22 21 25 25 22 17 19 25 31 33 35 32 31 30 22 21 19 16 12 10 7 5 4
35 36 29 30 30 32 30 30 29 26 24 23 22 22 22 24 24 26 23 21 24 22 23 29 24 24 22 17 28 36 34 32 30 31 27 22 20 17 16 16 14 10 7 4
33 33 36 38 38 38 38 36 36 36 35 36 36 31 27 29 28 26 24 22 25 25 23 29 23 21 24 17 28 39 38 35 34 30 24 21 20 14 11 12 13 7 4 3
33 32 26 20 23 28 27 32 32 31 35 39 39 34 30 29 27 24 23 24 27 26 26 26 21 22 23 19 26 41 38 34 31 26 26 23 24 23 17 11 11 8 8 5
22 17 17 25 25 28 28 26 27 35 40 36 39 34 27 26 26 30 29 26 24 24 27 26 22 24 23 17 38 47 37 31 28 24 25 22 24 25 17 10 13 12 9 3
22 22 19 21 27 30 33 29 34 25 27 30 33 22 18 18 21 21 22 22 27 26 27 25 22 23 19 25 35 38 34 33 26 25 22 20 26 20 17 17 14 13 6 7
15 15 16 17 19 26 31 27 29 35 28 21 18 18 20 22 20 25 29 28 24 27 29 24 20 20 18 39 35 30 35 31 24 21 19 26 24 22 18 13 14 12 12 11
18 19 22 25 27 25 28 27 28 30 37 33 24 20 19 20 20 26 22 22 26 27 24 20 22 21 29 32 30 35 34 28 24 22 29 29 25 20 16 15 14 13 8 4
27 29 30 32 29 30 31 25 27 25 24 24 21 20 21 23 28 24 25 26 26 23 22 18 17 24 45 40 33 28 32 23 27 31 30 27 22 20 17 15 13 10 7 4
34 35 35 34 33 34 26 26 30 30 30 27 27 27 27 24 26 24 25 26 30 19 11 25 43 49 39 32 29 31 22 31 30 29 27 24 22 20 16 11 9 6 4 1
31 28 26 24 25 24 27 32 32 28 28 30 28 24 23 24 22 22 24 18 13 17 45 47 43 43 32 28 26 28 33 30 30 27 26 24 21 18 15 12 9 6 1 2
28 33 33 31 28 27 29 28 24 22 23 19 18 23 21 18 14 14 17 22 44 45 49 49 26 29 25 31 40 36 34 31 29 27 23 20 19 16 13 9 6 6 3 1
30 33 32 27 24 25 23 19 16 14 14 17 18 15 8 13 19 34 45 47 48 48 33 29 32 35 43 40 35 32 30 30 27 24 22 19 16 14 11 9 6 4 2 3
30 28 24 21 19 19 15 14 16 12 19 20 20 20 23 33 41 43 48 49 38 38 40 37 31 32 30 32 33 32 28 27 24 21 18 17 15 12 11 8 5 5 5 4
24 20 18 18 14 15 14 14 6 28 24 21 31 35 41 38 41 44 47 34 40 40 29 23 32 38 36 32 30 28 27 24 21 20 17 14 12 13 10 9 8 7 6 8
Wind_Direction
283 293 301 296 295 294 187 236 218 276 273 297 305 70 98 73 83 77 68 63 34 5 317 198 192 202 212 203 208 208 208 209 210 204 206 205 206 202 197 190 208 221 222 205
305 299 290 289 285 274 275 275 282 284 283 252 64 79 65 62 61 56 48 42 21 9 347 229 211 201 211 209 209 209 209 213 209 206 204 205 201 200 197 193 199 212 226 235
256 307 318 298 257 275 264 255 233 252 254 113 87 73 63 56 53 44 43 38 23 358 360 312 264 242 220 210 207 209 211 214 211 209 209 204 197 199 202 198 212 213 219 228
265 358 268 245 259 275 282 286 323 292 86 86 104 79 61 50 44 37 29 14 18 356 341 341 312 220 222 221 213 209 214 213 214 211 206 202 204 207 207 207 210 220 226 234
199 214 281 298 299 303 308 296 356 141 89 92 119 82 43 35 37 32 23 12 10 359 350 354 326 231 203 212 207 212 208 209 215 209 200 201 202 208 207 207 210 218 231 247
197 236 258 13 328 4 326 278 10 54 47 35 18 70 301 24 24 23 16 10 10 1 5 6 358 180 180 218 208 204 207 209 210 208 207 200 199 209 211 211 215 227 235 239
215 229 268 307 326 351 276 288 27 63 51 52 76 36 355 7 15 11 8 5 360 2 5 9 356 211 212 223 209 207 211 215 210 207 204 200 192 207 215 211 211 225 241 239
219 234 264 8 32 33 259 32 24 15 73 55 43 352 356 355 357 354 360 354 351 348 357 1 356 249 226 222 216 211 206 209 210 204 200 195 200 207 212 207 216 230 236 239
192 209 171 359 172 132 324 305 353 3 26 33 3 348 333 327 343 341 338 337 343 338 341 349 353 322 228 229 214 209 207 208 208 202 187 197 202 204 202 215 216 238 236 242
18 18 345 337 306 266 321 315 347 327 288 357 346 317 309 310 318 325 326 324 331 327 329 334 341 330 287 237 218 210 202 203 197 189 185 197 200 207 209 222 209 202 237 223
285 318 328 55 349 346 352 324 317 286 254 274 281 294 298 303 309 309 308 313 315 322 320 320 328 326 308 264 220 207 202 197 184 189 196 186 187 196 202 184 207 248 216 208
280 312 305 304 321 318 300 284 282 294 295 297 302 295 298 304 306 307 304 310 311 306 309 306 308 322 301 282 226 208 198 187 184 178 195 187 188 185 190 206 194 182 226 256
289 296 300 297 298 300 305 308 309 296 279 277 281 285 287 292 295 299 303 308 307 303 297 303 298 307 310 276 252 215 203 186 183 183 188 191 191 197 181 173 197 207 224 255
284 291 296 295 296 297 293 290 290 292 284 286 283 278 282 278 283 289 295 301 305 286 291 302 290 290 314 271 255 228 194 191 191 183 185 188 194 201 210 225 237 228 217 226
269 272 273 277 278 279 283 283 284 278 276 277 276 274 278 275 280 285 288 294 295 282 290 301 281 305 310 263 236 210 193 195 187 182 183 192 187 190 186 200 219 217 182 204
278 274 274 280 288 293 298 270 263 275 273 270 270 269 269 272 273 277 282 287 282 278 287 293 270 313 305 269 238 210 196 185 174 176 183 187 195 200 198 197 180 174 202 229
293 303 291 291 289 276 277 286 282 270 270 273 266 258 258 264 274 279 280 276 271 276 290 288 270 306 296 252 216 191 171 168 172 171 188 188 199 192 189 183 198 197 184 46
275 273 275 276 283 288 294 286 274 277 282 268 277 240 243 258 270 286 283 273 263 273 282 283 272 297 284 229 184 170 164 166 160 186 188 187 185 177 172 168 184 181 164 95
292 290 273 284 287 278 279 278 286 279 268 286 273 265 265 271 274 281 284 267 260 271 282 285 259 279 215 182 159 172 166 160 177 182 180 165 159 157 152 153 147 132 119 113
291 274 288 278 283 280 290 278 282 280 258 270 277 266 264 272 270 283 276 258 267 278 280 267 258 252 206 161 176 169 155 176 172 167 155 150 149 146 148 147 139 129 128 110
290 294 291 281 279 276 285 278 275 272 263 257 262 269 275 274 267 281 264 264 274 277 265 265 261 205 167 159 149 152 170 166 162 155 153 149 144 143 142 139 135 137 135 135
297 291 287 281 279 281 273 268 278 279 272 265 260 268 265 272 271 264 260 266 275 265 273 173 155 135 127 129 151 162 162 156 150 148 144 144 147 146 144 145 143 150 166 230
286 288 291 293 283 279 277 280 281 271 268 258 259 268 269 259 254 261 262 249 222 185 132 123 121 125 137 151 150 158 151 143 139 139 143 144 142 144 146 148 152 164 172 330
292 294 297 298 286 280 276 275 270 264 264 256 257 262 251 244 249 255 226 181 140 128 124 129 134 140 141 145 142 139 139 140 141 142 137 137 139 143 153 164 166 130 141 279
299 298 300 297 288 278 274 270 274 264 254 258 236 227 240 242 200 154 148 134 131 131 137 146 138 126 134 136 133 136 139 139 137 137 143 148 151 150 152 157 148 145 127 56
302 305 304 297 283 271 257 267 275 265 173 171 164 162 149 152 135 129 126 129 131 133 130 126 122 124 128 133 137 133 132 136 141 143 144 144 148 156 163 150 133 126 123 113
318 322 317 314 276 263 245 243 249 150 166 154 137 123 124 127 132 130 134 136 134 131 119 117 131 137 138 139 136 137 139 141 144 146 150 153 147 141 136 125 112 97 73 50